Location: Asheville, NC
(35.6000°N, 82.5500°W)
Time: 18:30:35
(UTC-04:00)

QB50P2 - Pass Details

Date: 01 May 2018
Orbit: 596 x 610 km, 97.9° (Epoch: 23 May)

Event Time Altitude Azimuth Distance (km) Brightness Sun altitude
Rises 02:18:57 0° 357° (N) 2,873 ? -37.9°
Reaches altitude 10° 02:21:25 10° 345° (NNW) 1,966 ? -37.7°
Enters shadow 02:21:28 10° 344° (NNW) 1,949 ? -37.7°
